When you browse on this site, cookies collect data to enhance your experience and personalize the content and advertising you see.
Visit our Privacy Policy to learn more. By continuing to use the site, you agree to this use of cookies and data.
  • In Schweiz
  • Länderverzeichnis
  • Für 7 Tage
  • Wassertemperatur
  • Wetterkarte
  • Widgets
  • user-avatar
    Anmelden

    Stündliche Wetter Sherpur

    Heute, 19 September, Donnerstag

    Zeit Temperatur Niederschläge Wind Luftdruck Luftfeuchtigkeit
    00:00 +18°C° 0 mm 1 m/S 611 mmHg 18%
    01:00 +16°C° 0 mm 1 m/S 611 mmHg 18%
    02:00 +16°C° 0 mm 1 m/S 611 mmHg 17%
    03:00 +15°C° 0 mm 1 m/S 611 mmHg 17%
    04:00 +15°C° 0 mm 1 m/S 611 mmHg 16%
    05:00 +15°C° 0 mm 2 m/S 611 mmHg 15%
    06:00 +17°C° 0 mm 2 m/S 612 mmHg 13%
    07:00 +20°C° 0 mm 1 m/S 613 mmHg 12%
    08:00 +22°C° 0 mm 1 m/S 615 mmHg 10%
    09:00 +23°C° 0 mm 1 m/S 615 mmHg 9%
    10:00 +25°C° 0 mm 1 m/S 615 mmHg 7%
    11:00 +27°C° 0 mm 1 m/S 616 mmHg 6%
    12:00 +28°C° 0 mm 2 m/S 615 mmHg 6%
    13:00 +29°C° 0 mm 2 m/S 615 mmHg 5%
    14:00 +30°C° 0 mm 2 m/S 615 mmHg 5%
    15:00 +30°C° 0 mm 3 m/S 615 mmHg 6%
    16:00 +30°C° 0 mm 4 m/S 615 mmHg 6%
    17:00 +30°C° 0 mm 4 m/S 615 mmHg 7%
    18:00 +27°C° 0 mm 4 m/S 614 mmHg 10%
    19:00 +24°C° 0 mm 3 m/S 614 mmHg 13%
    20:00 +21°C° 0 mm 2 m/S 613 mmHg 16%
    21:00 +20°C° 0 mm 2 m/S 613 mmHg 18%
    22:00 +19°C° 0 mm 2 m/S 613 mmHg 20%
    23:00 +18°C° 0 mm 2 m/S 612 mmHg 21%

    Morgen, 20 September, Freitag

    Zeit Temperatur Niederschläge Wind Luftdruck Luftfeuchtigkeit
    00:00 +17°C° 0 mm 2 m/S 612 mmHg 23%
    01:00 +16°C° 0 mm 1 m/S 611 mmHg 24%
    02:00 +15°C° 0 mm 1 m/S 611 mmHg 25%
    03:00 +15°C° 0 mm 1 m/S 611 mmHg 26%
    04:00 +14°C° 0 mm 1 m/S 610 mmHg 27%
    05:00 +14°C° 0 mm 1 m/S 610 mmHg 28%
    06:00 +16°C° 0 mm 1 m/S 611 mmHg 25%
    07:00 +18°C° 0 mm 1 m/S 612 mmHg 22%
    08:00 +20°C° 0 mm 1 m/S 613 mmHg 18%
    09:00 +22°C° 0 mm 1 m/S 613 mmHg 16%
    10:00 +24°C° 0 mm 1 m/S 614 mmHg 14%
    11:00 +26°C° 0 mm 1 m/S 614 mmHg 12%
    12:00 +27°C° 0 mm 1 m/S 614 mmHg 11%
    13:00 +28°C° 0 mm 1 m/S 614 mmHg 10%
    14:00 +29°C° 0 mm 2 m/S 613 mmHg 8%
    15:00 +29°C° 0 mm 2 m/S 613 mmHg 8%
    16:00 +29°C° 0 mm 2 m/S 613 mmHg 8%
    17:00 +29°C° 0 mm 2 m/S 613 mmHg 8%
    18:00 +27°C° 0 mm 2 m/S 613 mmHg 11%
    19:00 +24°C° 0 mm 2 m/S 612 mmHg 14%
    20:00 +21°C° 0 mm 2 m/S 612 mmHg 16%
    21:00 +20°C° 0 mm 2 m/S 612 mmHg 18%
    22:00 +19°C° 0 mm 2 m/S 611 mmHg 19%
    23:00 +18°C° 0 mm 2 m/S 611 mmHg 21%

    übermorgen, 21 September, Samstag

    Zeit Temperatur Niederschläge Wind Luftdruck Luftfeuchtigkeit
    00:00 +18°C° 0 mm 1 m/S 611 mmHg 23%
    01:00 +16°C° 0 mm 1 m/S 610 mmHg 25%
    02:00 +15°C° 0 mm 1 m/S 609 mmHg 26%
    03:00 +15°C° 0 mm 1 m/S 609 mmHg 27%
    04:00 +14°C° 0 mm 1 m/S 609 mmHg 28%
    05:00 +14°C° 0 mm 1 m/S 609 mmHg 29%
    06:00 +15°C° 0 mm 0 m/S 610 mmHg 25%
    07:00 +17°C° 0 mm 0 m/S 611 mmHg 22%
    08:00 +19°C° 0 mm 0 m/S 612 mmHg 18%
    09:00 +23°C° 0 mm 1 m/S 612 mmHg 16%
    10:00 +24°C° 0 mm 1 m/S 613 mmHg 14%
    11:00 +26°C° 0 mm 1 m/S 613 mmHg 12%
    12:00 +27°C° 0 mm 1 m/S 613 mmHg 11%
    13:00 +29°C° 0 mm 2 m/S 613 mmHg 10%
    14:00 +30°C° 0 mm 2 m/S 613 mmHg 9%
    15:00 +30°C° 0 mm 2 m/S 612 mmHg 9%
    16:00 +30°C° 0 mm 2 m/S 612 mmHg 8%
    17:00 +30°C° 0 mm 2 m/S 612 mmHg 8%
    18:00 +27°C° 0 mm 2 m/S 611 mmHg 12%
    19:00 +24°C° 0 mm 1 m/S 611 mmHg 15%
    20:00 +21°C° 0 mm 1 m/S 610 mmHg 19%
    21:00 +20°C° 0 mm 1 m/S 609 mmHg 21%
    22:00 +19°C° 0 mm 1 m/S 609 mmHg 23%
    23:00 +16°C° 0 mm 0 m/S 609 mmHg 25%

    22 September, Sonntag

    Zeit Temperatur Niederschläge Wind Luftdruck Luftfeuchtigkeit
    00:00 +16°C° 0 mm 0 m/S 609 mmHg 26%
    01:00 +15°C° 0 mm 0 m/S 609 mmHg 28%
    02:00 +15°C° 0 mm 0 m/S 608 mmHg 30%
    03:00 +14°C° 0 mm 0 m/S 608 mmHg 32%
    04:00 +14°C° 0 mm 0 m/S 608 mmHg 34%
    05:00 +13°C° 0 mm 0 m/S 608 mmHg 37%
    06:00 +16°C° 0 mm 0 m/S 609 mmHg 31%
    07:00 +18°C° 0 mm 0 m/S 611 mmHg 26%
    08:00 +21°C° 0 mm 0 m/S 612 mmHg 21%
    09:00 +22°C° 0 mm 0 m/S 613 mmHg 20%
    10:00 +26°C° 0 mm 1 m/S 613 mmHg 20%
    11:00 +27°C° 0 mm 1 m/S 614 mmHg 19%
    12:00 +29°C° 0 mm 1 m/S 614 mmHg 17%
    13:00 +30°C° 0 mm 1 m/S 614 mmHg 15%
    14:00 +31°C° 0 mm 2 m/S 614 mmHg 13%
    15:00 +31°C° 0 mm 2 m/S 614 mmHg 13%
    16:00 +31°C° 0 mm 2 m/S 614 mmHg 12%
    17:00 +31°C° 0 mm 2 m/S 614 mmHg 12%
    18:00 +28°C° 0 mm 2 m/S 613 mmHg 16%
    19:00 +26°C° 0 mm 2 m/S 613 mmHg 20%
    20:00 +23°C° 0 mm 2 m/S 613 mmHg 24%
    21:00 +21°C° 0 mm 2 m/S 613 mmHg 24%
    22:00 +20°C° 0 mm 2 m/S 612 mmHg 23%
    23:00 +19°C° 0 mm 2 m/S 612 mmHg 23%

    23 September, Montag

    Zeit Temperatur Niederschläge Wind Luftdruck Luftfeuchtigkeit
    00:00 +18°C° 0 mm 2 m/S 612 mmHg 22%
    01:00 +18°C° 0 mm 1 m/S 612 mmHg 21%
    02:00 +18°C° 0 mm 1 m/S 611 mmHg 20%
    03:00 +16°C° 0 mm 1 m/S 611 mmHg 20%
    04:00 +15°C° 0 mm 1 m/S 611 mmHg 21%
    05:00 +14°C° 0 mm 1 m/S 610 mmHg 22%
    06:00 +16°C° 0 mm 0 m/S 612 mmHg 19%
    07:00 +18°C° 0 mm 0 m/S 613 mmHg 16%
    08:00 +20°C° 0 mm 0 m/S 614 mmHg 13%
    09:00 +24°C° 0 mm 1 m/S 614 mmHg 12%
    10:00 +26°C° 0 mm 1 m/S 615 mmHg 11%
    11:00 +27°C° 0 mm 1 m/S 615 mmHg 9%
    12:00 +29°C° 0 mm 1 m/S 615 mmHg 9%
    13:00 +30°C° 0 mm 2 m/S 615 mmHg 8%
    14:00 +31°C° 0 mm 2 m/S 614 mmHg 7%
    15:00 +31°C° 0 mm 2 m/S 614 mmHg 7%
    16:00 +31°C° 0 mm 2 m/S 614 mmHg 7%
    17:00 +31°C° 0 mm 2 m/S 614 mmHg 7%
    18:00 +28°C° 0 mm 2 m/S 613 mmHg 10%
    19:00 +25°C° 0 mm 1 m/S 613 mmHg 13%
    20:00 +22°C° 0 mm 1 m/S 612 mmHg 16%
    21:00 +21°C° 0 mm 1 m/S 612 mmHg 18%
    22:00 +20°C° 0 mm 1 m/S 611 mmHg 20%
    23:00 +19°C° 0 mm 1 m/S 611 mmHg 22%

    24 September, Dienstag

    Zeit Temperatur Niederschläge Wind Luftdruck Luftfeuchtigkeit
    00:00 +16°C° 0 mm 0 m/S 611 mmHg 22%
    01:00 +16°C° 0 mm 0 m/S 610 mmHg 22%
    02:00 +15°C° 0 mm 0 m/S 610 mmHg 23%
    03:00 +14°C° 0 mm 0 m/S 610 mmHg 24%
    04:00 +14°C° 0 mm 0 m/S 610 mmHg 25%
    05:00 +13°C° 0 mm 0 m/S 610 mmHg 26%
    06:00 +16°C° 0 mm 0 m/S 611 mmHg 22%
    07:00 +19°C° 0 mm 0 m/S 612 mmHg 18%
    08:00 +21°C° 0 mm 0 m/S 614 mmHg 14%
    09:00 +23°C° 0 mm 0 m/S 614 mmHg 12%
    10:00 +27°C° 0 mm 1 m/S 615 mmHg 11%
    11:00 +28°C° 0 mm 1 m/S 615 mmHg 10%
    12:00 +29°C° 0 mm 1 m/S 615 mmHg 9%
    13:00 +30°C° 0 mm 2 m/S 615 mmHg 8%
    14:00 +31°C° 0 mm 2 m/S 615 mmHg 8%
    15:00 +31°C° 0 mm 2 m/S 615 mmHg 8%
    16:00 +31°C° 0 mm 2 m/S 615 mmHg 9%
    17:00 +31°C° 0 mm 2 m/S 615 mmHg 10%
    18:00 +28°C° 0 mm 2 m/S 614 mmHg 15%
    19:00 +25°C° 0 mm 2 m/S 613 mmHg 20%
    20:00 +22°C° 0 mm 1 m/S 613 mmHg 25%
    21:00 +21°C° 0 mm 1 m/S 613 mmHg 26%
    22:00 +20°C° 0 mm 1 m/S 612 mmHg 28%
    23:00 +19°C° 0 mm 1 m/S 612 mmHg 29%
    Mehr zeigen